Location: Betra
(48.4113°N, 8.6634°E)
Time: 03:39:54
(UTC+00:00)

SAR-Lupe-4 - Pass Details

Date: 13 August 2024
Orbit: 473 x 479 km, 98.1° (Epoch: 30 August)

Event Time Altitude Azimuth Distance (km) Brightness Sun altitude
Rises 03:05:45 0° 11° (N) 2,544 8.0 -11.0°
Reaches altitude 10° 03:07:50 10° 8° (N) 1,661 7.0 -10.7°
Maximum altitude 03:11:21 65° 287° (WNW) 532 3.6 -10.3°
Enters shadow 03:14:47 11° 205° (SSW) 1,613 5.7 -9.8°
